Showing default

ASCENT, 51287

Orbit data source: Space-Track

ASCENT, 51287 is a payload satellite owned by AFRL/RV (US) in GEO that was launched on Tue, 07 Dec 2021 UTC via an ATLAS V 551 launch vehicle from the Air Force Eastern Test Range (AFETR). Payload-class satellites include a variety of spacecraft equipped with specific instruments for various scientific and technological missions. These include communications satellites like Starlink; space stations such as the ISS; scientific satellites like the Hubble; Earth observation satellites from companies like Planet Labs, Umbra, and HawkEye 360; GPS; miniature CubeSats for education and research; and military/defense satellites.

Not visible in the next 10 days
Identifier
51287, 2021-118E
Orbit
GEO
Country
Flag of USUS
Related business
Manufacturer
Blue Canyon
Mission
Operational Defense Technology
Bus & Motor
CUBESAT 12U, Unknown motor
Mass
~25 kg wet, ~25 kg dry
Launch date (UTC)
2021-12-07 (4 years ago)
Launch vehicle
ATLAS V 551
Launch site
Air Force Eastern Test Range (AFETR)
Object type
Payload
Rocket body
Debris
Shape & HBR
Box, 0.1 m
Radar Cross Section
0.080 m², Large (>1 m²)

Expand to show TLE details & history
Last TLE update: 1 day ago

TLE from 1 day ago
0 ASCENT
1 51287U 21118E   25348.59739270 -.00000078  00000-0  00000-0 0  9996
2 51287   3.7050  79.6510 0008126 147.2313 212.4986  1.01220266 14452
Epoch: 2025-12-14T14:20Z
TLE epoch observation values (Epoch: 2025-12-14T14:20:14.729Z)
Latitude
-0°
Longitude
140.75562°
Altitude
35,551.13 km
Speed
3.082 km/s
True Right ascension
05h 17m 18s
True Declination
0° 00' 00"
Sunlit
Object was in daylight at epoch
Visualization orbit readout
Latitude
Unknown
Longitude
Unknown
Altitude
Unknown
Speed
Unknown
Apparent Right ascension
Unknown
Apparent Declination
Unknown
Sunlit
N/A
Visualization observer readout
Local Sidereal Time
13:23:50
Azimuth
Unknown
Elevation
Unknown
Doppler factor
Unknown
Orbital elements
Apogee altitude
35,557.9 km
Perigee altitude
35,489.8 km
Semi-major axis
41,901.987 km
Eccentricity
0.00081
Inclination
3.705°
RAAN
79.651°
Arg. of periapsis
147.2313°
True anomaly
212.44861°
Mean anomaly
212.4986°
Eccentric anomaly
212.4736°
Mean motion
0.25304 °/min
Orbital period
1,422.69 mins
BSTAR
0
Loading maneuver chart data...
Computing Atmospheric mass density...
Loading historical data...
Loading historical data...
Loading historical data...
Loading historical data...
Loading historical data...
Loading historical data...
Loading historical data...
Other satellites on launch #118 in the year 2021 (2021-12-07 UTC)

Documentation

Showing up to 5 results
|